#timestamp,LO_Frequency,Hit 
1499389215.3,286046958.0,N
1499389235.1,286046957.3,N
1499389236.0,286046957.3,N
1499389255.8,286046956.5,N
1499389275.7,286046957.2,N
1499389295.5,286046957.0,N
1499389315.3,286046955.6,N
1499389335.1,286046955.1,N
1499389355.9,286046955.5,N
1499389375.7,286046955.5,N
1499389395.5,286046957.8,N
1499389415.4,286046957.8,N
1499389435.2,286046956.8,N
1499389455.0,286046956.7,N
1499389455.9,286046956.7,N
1499389475.8,286046957.3,N
1499389495.6,286046956.7,N
1499389515.4,286046957.1,N
1499389535.3,286046957.8,N
1499389555.1,286046957.1,N
1499389556.0,286046957.1,N
1499389575.8,286046957.0,N
1499389595.7,286046959.4,N
1499389615.5,286046959.6,N
1499389635.3,286046959.5,N
1499389655.2,286046959.4,N
1499389675.9,286046958.3,N
1499389695.7,286046960.9,N
1499389715.6,286046962.6,N
1499389735.4,286046959.8,N
1499389755.2,286046960.5,N
1499389775.0,286046960.5,N
1499389776.0,286046960.5,N
1499389795.8,286046960.5,N
1499389815.6,286046960.8,N
1499389835.4,286046961.2,N
1499389855.3,286046960.6,N
1499389875.1,286046959.9,N
1499389895.8,286046960.5,N
1499389915.7,286046962.6,N
1499389935.5,286046961.7,N
1499389955.3,286046962.0,N
1499389975.2,286046962.1,N
1499389995.9,286046962.2,N
1499390015.7,286046962.0,N
1499390035.6,286046962.0,N
1499390055.4,286046962.2,N
1499390075.2,286046962.2,N
1499390095.1,286046961.9,N
1499390096.0,286046961.9,N
1499390115.8,286046961.6,N
1499390135.6,286046961.4,N
1499390155.4,286046961.6,N
1499390175.3,286046961.7,N
1499390195.1,286046961.5,N
1499390215.8,286046961.9,N
1499390235.7,286046962.6,N
1499390255.5,286046962.3,N
1499390275.3,286046961.6,N
1499390295.2,286046961.5,N
1499390315.9,286046964.0,N
1499390335.7,286046963.6,N
1499390355.6,286046963.0,N
1499390375.4,286046963.9,N
1499390395.2,286046963.4,N
1499390415.1,286046966.0,N
1499390416.0,286046966.0,N
1499390435.8,286046965.7,N
1499390455.6,286046967.6,N
1499390475.5,286046965.1,N
1499390495.3,286046964.5,N
1499390515.1,286046965.1,N
1499390535.8,286046965.6,N
1499390555.7,286046965.5,N
1499390575.5,286046963.8,N
1499390595.3,286046963.8,N
1499390615.2,286046965.8,N
1499390635.9,286046964.5,N
1499390655.7,286046964.5,N
1499390675.6,286046964.6,N
1499390695.4,286046964.7,N
1499390715.2,286046964.9,N
1499390735.1,286046967.4,N
1499390736.0,286046967.4,N
1499390755.8,286046966.2,N
1499390775.6,286046967.4,N
1499390795.5,286046967.2,N
1499390815.3,286046966.6,N
1499390835.1,286046969.0,N
1499390855.8,286046970.8,N
1499390875.7,286046969.6,N
1499390895.5,286046968.6,N
1499390915.3,286046969.1,N
1499390935.2,286046966.9,N
1499390955.0,286046968.8,N
1499390955.9,286046968.8,N
1499390975.7,286046967.1,N
1499390995.6,286046967.4,N
1499391015.4,286046967.3,N
1499391035.2,286046966.4,N
1499391055.1,286046966.3,N
1499391056.0,286046966.3,N
1499391075.8,286046966.3,N
1499391095.6,286046968.7,N
1499391115.5,286046970.6,N
1499391135.3,286046970.2,N
1499391155.1,286046968.0,N
1499391175.9,286046968.4,N
1499391195.7,286046968.1,N
1499391215.5,286046970.5,N
1499391235.4,286046969.5,N
1499391255.2,286046970.7,N
1499391275.0,286046968.4,N
1499391275.9,286046968.4,N
1499391295.8,286046970.5,N
1499391315.6,286046970.0,N
1499391335.4,286046969.3,N
1499391355.2,286046971.7,N
1499391375.1,286046971.7,N
1499391376.0,286046971.7,N
1499391395.8,286046971.3,N
1499391415.6,286046972.4,N
1499391435.5,286046971.5,N
1499391455.3,286046973.7,N
1499391475.1,286046975.4,N
1499391495.9,286046973.4,N
1499391515.7,286046971.0,N
1499391535.5,286046973.9,N
1499391555.4,286046973.6,N
1499391575.2,286046973.4,N
1499391595.0,286046973.9,N
1499391595.9,286046973.9,N
1499391615.8,286046973.0,N
1499391635.6,286046976.4,N
1499391655.4,286046977.4,N
1499391675.2,286046979.0,N
1499391695.1,286046980.6,N
1499391696.0,286046980.6,N
1499391715.8,286046979.5,N
1499391735.6,286046978.9,N
1499391755.5,286046979.0,N
1499391775.3,286046979.8,N
1499391795.1,286046979.7,N
1499391815.9,286046979.7,N
1499391835.7,286046979.9,N
1499391855.5,286046979.5,N
1499391875.4,286046977.8,N
1499391895.2,286046977.9,N
1499391915.0,286046978.1,N
1499391915.9,286046978.1,N
1499391935.8,286046976.0,N
1499391955.6,286046975.9,N
1499391975.4,286046975.9,N
1499391995.3,286046978.6,N
1499392015.1,286046978.0,N
1499392016.0,286046978.0,N
1499392035.8,286046978.5,N
1499392055.7,286046975.7,N
1499392075.5,286046976.5,N
1499392095.3,286046976.2,N
1499392115.1,286046977.3,N
1499392135.9,286046978.0,N
1499392155.7,286046978.3,N
1499392175.5,286046977.7,N
1499392195.4,286046980.3,N
1499392215.2,286046980.4,N
1499392235.0,286046977.4,N
1499392235.9,286046977.4,N
1499392255.8,286046978.2,N
1499392275.6,286046978.5,N
1499392295.4,286046977.4,N
1499392315.3,286046977.9,N
1499392335.1,286046978.4,N
1499392336.0,286046978.4,N
1499392355.8,286046980.0,N
1499392375.7,286046979.0,N
1499392395.5,286046978.9,N
1499392415.3,286046979.4,N
1499392435.2,286046981.9,N
1499392455.9,286046982.0,N
1499392475.7,286046979.2,N
1499392495.6,286046981.9,N
1499392515.4,286046981.6,N
1499392535.2,286046980.3,N
1499392555.0,286046979.6,N
1499392556.0,286046979.6,N
1499392575.8,286046979.9,N
1499392595.6,286046978.9,N
1499392615.4,286046981.1,N
1499392635.3,286046979.5,N
1499392655.1,286046980.2,N
1499392675.8,286046980.0,N
1499392695.7,286046977.3,N
1499392715.5,286046977.4,N
1499392735.3,286046977.4,N
1499392755.2,286046980.4,N
1499392775.9,286046980.0,N
1499392795.7,286046979.4,N
